Fulton, NY

3:29 PM EST on December 06, 2016 (GMT -0500)
Oswego County

Weather History for KFZY - January, 2014

Change the Weather History Date:

Monday, January 13, 2014

  Actual Average (KSYR) Record (KSYR)
Temperature  
Mean Temperature 39 °F 23 °F  
Max Temperature 50 °F 31 °F 68 °F (1932)
Min Temperature 28 °F 16 °F -22 °F (1914)
Degree Days  
Heating Degree Days 26 42  
Month to date heating degree days 533  
Since 1 July heating degree days 2986  
Cooling Degree Days 0 0  
Month to date cooling degree days 0  
Year to date cooling degree days 0  
Moisture  
Dew Point 27 °F    
Average Humidity 60    
Maximum Humidity 86    
Minimum Humidity 41    
Precipitation  
Precipitation 0.06 in 0.09 in 0.82 in (2012)
Month to date precipitation 1.14  
Year to date precipitation 1.14  
Snow  
Snow 0.00 in 1.10 in 8.00 in (2012)
Month to date snowfall 13.9  
Since 1 July snowfall 56.5  
Snow Depth -    
Sea Level Pressure  
Sea Level Pressure 29.83 in    
Wind  
Wind Speed 4 mph (SSE)    
Max Wind Speed 10 mph    
Max Gust Speed 16 mph    
Visibility 10 miles    
Events Rain    
T = Trace of Precipitation, MM = Missing Value Source: NWS Daily Summary

Daily Weather History Graph

Daily Weather History Graph

Search for Another Location

Airport or City:

Trip Planner

Search our weather history database for the weather conditions in past years. The results will help you decide how hot, cold, wet, or windy it might be!

Date:

Astronomy

Jan. 13, 2014 Rise Set
Actual Time 7:35 AM EST 4:52 PM EST
Civil Twilight 7:04 AM EST 5:24 PM EST
Nautical Twilight 6:28 AM EST 6:00 PM EST
Astronomical Twilight 5:54 AM EST 6:34 PM EST
Moon 3:06 PM EST (1/13) 5:22 AM EST (1/13)
Length of Visible Light 10h 20m
Length of Day
9h 17m
Waxing Gibbous, 95% of the Moon is Illuminated
Jan 13
Waxing Gibbous
Jan 15
Full
Jan 24
Last Quarter
Jan 30
New
Feb 6
First Quarter

Hourly Weather History & Observations

Time (EST) Temp. Windchill Dew Point Humidity Pressure Visibility Wind Dir Wind Speed Gust Speed Precip Events Conditions
12:54 AM 28.0 °F - 24.1 °F 85% 29.98 in 10.0 mi Calm Calm - N/A   Clear
1:54 AM 30.9 °F 27.5 °F 24.1 °F 76% 29.97 in 10.0 mi Variable 3.5 mph - N/A   Clear
2:54 AM 30.9 °F 26.2 °F 24.1 °F 76% 29.97 in 10.0 mi SE 4.6 mph - N/A   Clear
3:54 AM 30.9 °F - 23.0 °F 72% 29.96 in 10.0 mi Calm Calm - N/A   Clear
4:54 AM 30.9 °F 24.3 °F 23.0 °F 72% 29.94 in 10.0 mi SE 6.9 mph - N/A   Scattered Clouds
5:54 AM 30.9 °F 25.2 °F 23.0 °F 72% 29.92 in 10.0 mi SE 5.8 mph - N/A   Clear
6:54 AM 32.0 °F 26.4 °F 24.1 °F 73% 29.90 in 10.0 mi SE 5.8 mph - N/A   Clear
7:54 AM 33.1 °F 27.7 °F 25.0 °F 72% 29.89 in 10.0 mi SE 5.8 mph - N/A   Clear
8:54 AM 35.1 °F 30.1 °F 26.1 °F 70% 29.89 in 10.0 mi SE 5.8 mph - N/A   Clear
9:54 AM 39.0 °F 35.7 °F 27.0 °F 62% 29.88 in 10.0 mi SSE 4.6 mph - N/A   Clear
10:54 AM 41.0 °F 37.1 °F 28.0 °F 60% 29.86 in 10.0 mi SE 5.8 mph - N/A   Clear
11:54 AM 46.0 °F 41.0 °F 27.0 °F 47% 29.83 in 10.0 mi South 10.4 mph - N/A   Clear
12:54 PM 46.9 °F - 27.0 °F 46% 29.80 in 10.0 mi South 9.2 mph - N/A   Clear
1:54 PM 48.0 °F - 27.0 °F 44% 29.77 in 10.0 mi South 9.2 mph - N/A   Clear
2:54 PM 50.0 °F - 27.0 °F 41% 29.75 in 10.0 mi SSE 8.1 mph 16.1 mph N/A   Clear
3:54 PM 48.0 °F - 27.0 °F 44% 29.75 in 10.0 mi Calm Calm - N/A   Mostly Cloudy
4:54 PM 48.0 °F - 26.1 °F 42% 29.75 in 10.0 mi Variable 4.6 mph - N/A   Overcast
5:54 PM 46.9 °F - 27.0 °F 46% 29.75 in 10.0 mi SE 3.5 mph - N/A   Overcast
6:54 PM 48.0 °F - 28.0 °F 46% 29.73 in 10.0 mi SSE 3.5 mph - 0.00 in Rain Light Rain
7:54 PM 48.0 °F - 28.0 °F 46% 29.72 in 10.0 mi South 8.1 mph - 0.00 in   Overcast
8:54 PM 48.9 °F - 28.9 °F 46% 29.72 in 10.0 mi South 9.2 mph - 0.00 in   Overcast
9:54 PM 46.0 °F 42.5 °F 32.0 °F 58% 29.72 in 10.0 mi South 6.9 mph - 0.00 in Rain Light Rain
10:54 PM 45.0 °F 40.6 °F 34.0 °F 65% 29.71 in 8.0 mi South 8.1 mph - 0.01 in Rain Light Rain
11:54 PM 41.0 °F 38.0 °F 37.0 °F 86% 29.70 in 8.0 mi SSE 4.6 mph - 0.05 in Rain Light Rain